Time,TemperatureF,DewpointF,PressureIn,WindDirection,WindDirectionDegrees,WindSpeedMPH,WindSpeedGustMPH,Humidity,HourlyPrecipIn,Conditions,Clouds,dailyrainin,SoftwareType,DateUTC
2013-09-07 00:13:00,61.0,60.0,29.86,ESE,110,0.0,0.0,98,0.00,,,0.04,,2013-09-07 05:13:00,
2013-09-07 00:23:00,61.0,60.0,29.86,ESE,110,0.0,0.0,98,0.00,,,0.04,,2013-09-07 05:23:00,
2013-09-07 00:52:00,60.0,59.0,29.85,ESE,110,0.0,0.0,98,0.00,,,0.04,,2013-09-07 05:52:00,
2013-09-07 01:13:00,60.0,60.0,29.86,ESE,110,0.0,0.0,99,0.00,,,0.04,,2013-09-07 06:13:00,
2013-09-07 01:21:00,60.0,60.0,29.86,ESE,108,0.0,0.0,99,0.00,,,0.04,,2013-09-07 06:21:00,
2013-09-07 01:42:00,60.0,60.0,29.86,ESE,110,0.0,0.0,99,0.00,,,0.04,,2013-09-07 06:42:00,
2013-09-07 01:52:00,60.0,60.0,29.86,ESE,110,0.0,0.0,99,0.00,,,0.04,,2013-09-07 06:52:00,
2013-09-07 02:12:00,60.0,60.0,29.85,ESE,110,0.0,0.0,99,0.00,,,0.04,,2013-09-07 07:12:00,
2013-09-07 02:22:00,61.0,61.0,29.85,ESE,110,0.0,0.0,99,0.00,,,0.04,,2013-09-07 07:22:00,
2013-09-07 02:42:00,60.0,60.0,29.85,ESE,110,0.0,0.0,99,0.00,,,0.04,,2013-09-07 07:42:00,
2013-09-07 03:12:00,61.0,61.0,29.84,ESE,108,0.0,0.0,99,0.00,,,0.04,,2013-09-07 08:12:00,
2013-09-07 03:22:00,61.0,61.0,29.84,ESE,110,0.0,0.0,99,0.00,,,0.04,,2013-09-07 08:22:00,
2013-09-07 03:43:00,61.0,61.0,29.84,ESE,110,0.0,0.0,99,0.00,,,0.04,,2013-09-07 08:43:00,
2013-09-07 03:53:00,62.0,62.0,29.83,ESE,109,0.0,0.0,99,0.00,,,0.04,,2013-09-07 08:53:00,
2013-09-07 04:12:00,62.0,62.0,29.83,ESE,109,0.0,0.0,99,0.00,,,0.04,,2013-09-07 09:12:00,
2013-09-07 04:21:00,62.0,62.0,29.83,ESE,110,0.0,0.0,100,0.00,,,0.04,,2013-09-07 09:21:00,
2013-09-07 04:42:00,62.0,62.0,29.83,ESE,110,0.0,0.0,99,0.00,,,0.04,,2013-09-07 09:42:00,
2013-09-07 04:52:00,62.0,62.0,29.82,ESE,108,0.0,0.0,99,0.00,,,0.04,,2013-09-07 09:52:00,
2013-09-07 05:11:00,62.0,62.0,29.82,ESE,108,0.0,0.0,99,0.00,,,0.04,,2013-09-07 10:11:00,
2013-09-07 05:21:00,62.0,62.0,29.83,ESE,110,0.0,0.0,99,0.00,,,0.04,,2013-09-07 10:21:00,
2013-09-07 05:41:00,62.0,62.0,29.82,ESE,110,0.0,0.0,99,0.00,,,0.04,,2013-09-07 10:41:00,
2013-09-07 05:51:00,62.0,62.0,29.82,ESE,108,0.0,0.0,99,0.00,,,0.04,,2013-09-07 10:51:00,
2013-09-07 06:13:00,61.0,61.0,29.82,ESE,110,0.0,0.0,99,0.00,,,0.04,,2013-09-07 11:13:00,
2013-09-07 06:23:00,61.0,61.0,29.83,ESE,110,0.0,0.0,99,0.00,,,0.04,,2013-09-07 11:23:00,
2013-09-07 06:43:00,60.0,60.0,29.82,ESE,110,0.0,0.0,99,0.00,,,0.04,,2013-09-07 11:43:00,
2013-09-07 06:52:00,60.0,60.0,29.83,ESE,110,0.0,0.0,99,0.00,,,0.04,,2013-09-07 11:52:00,
2013-09-07 07:12:00,60.0,60.0,29.84,ESE,110,0.0,0.0,99,0.00,,,0.04,,2013-09-07 12:12:00,
2013-09-07 07:22:00,61.0,61.0,29.83,ESE,108,0.0,0.0,99,0.00,,,0.04,,2013-09-07 12:22:00,
2013-09-07 07:42:00,60.0,60.0,29.84,ESE,110,0.0,0.0,99,0.00,,,0.04,,2013-09-07 12:42:00,
2013-09-07 07:52:00,61.0,61.0,29.83,ESE,108,0.0,0.0,99,0.00,,,0.04,,2013-09-07 12:52:00,
2013-09-07 08:12:00,61.0,61.0,29.83,ESE,108,0.0,0.0,100,0.00,,,0.04,,2013-09-07 13:12:00,
2013-09-07 08:21:00,63.0,63.0,29.83,ESE,108,0.0,0.0,100,0.00,,,0.04,,2013-09-07 13:21:00,
2013-09-07 08:52:00,68.0,68.0,29.83,North,9,0.0,1.0,100,0.00,,,0.04,,2013-09-07 13:52:00,
2013-09-07 09:11:00,70.0,70.0,29.83,North,9,0.0,1.0,99,0.00,,,0.04,,2013-09-07 14:11:00,
2013-09-07 09:22:00,73.0,69.0,29.82,WSW,243,0.0,3.0,88,0.00,,,0.04,,2013-09-07 14:22:00,
2013-09-07 09:52:00,77.0,71.0,29.83,WSW,252,0.0,3.0,81,0.00,,,0.04,,2013-09-07 14:52:00,
2013-09-07 10:11:00,78.0,70.0,29.83,WNW,286,0.0,2.0,77,0.00,,,0.04,,2013-09-07 15:11:00,
2013-09-07 10:23:00,79.0,71.0,29.83,NW,305,0.0,2.0,76,0.00,,,0.04,,2013-09-07 15:23:00,
2013-09-07 10:44:00,80.0,72.0,29.83,South,191,0.0,2.0,78,0.00,,,0.04,,2013-09-07 15:44:00,
2013-09-07 10:54:00,81.0,72.0,29.83,North,354,0.0,3.0,75,0.00,,,0.04,,2013-09-07 15:54:00,
2013-09-07 11:13:00,82.0,72.0,29.83,ENE,74,0.0,2.0,73,0.00,,,0.04,,2013-09-07 16:13:00,
2013-09-07 11:24:00,82.0,72.0,29.83,NNE,22,0.0,2.0,73,0.00,,,0.04,,2013-09-07 16:24:00,
2013-09-07 11:43:00,83.0,72.0,29.83,East,84,0.0,2.0,69,0.00,,,0.04,,2013-09-07 16:43:00,
2013-09-07 11:53:00,83.0,70.0,29.83,West,259,1.0,4.0,66,0.00,,,0.04,,2013-09-07 16:53:00,
2013-09-07 12:12:00,83.0,73.0,29.83,NW,315,0.0,2.0,71,0.00,,,0.04,,2013-09-07 17:12:00,
2013-09-07 12:24:00,84.0,72.0,29.83,West,259,0.0,2.0,67,0.00,,,0.04,,2013-09-07 17:24:00,
2013-09-07 12:43:00,83.0,71.0,29.83,SE,145,0.0,2.0,67,0.00,,,0.04,,2013-09-07 17:43:00,
2013-09-07 12:52:00,85.0,72.0,29.83,SE,136,0.0,3.0,66,0.00,,,0.04,,2013-09-07 17:52:00,
2013-09-07 13:13:00,84.0,73.0,29.83,South,177,0.0,2.0,70,0.00,,,0.04,,2013-09-07 18:13:00,
2013-09-07 13:22:00,84.0,71.0,29.83,SW,232,0.0,3.0,65,0.00,,,0.04,,2013-09-07 18:22:00,
2013-09-07 13:43:00,86.0,73.0,29.82,SE,142,0.0,2.0,65,0.00,,,0.04,,2013-09-07 18:43:00,
2013-09-07 13:52:00,86.0,71.0,29.83,West,281,1.0,3.0,61,0.00,,,0.04,,2013-09-07 18:52:00,
2013-09-07 14:11:00,82.0,72.0,29.83,SW,228,0.0,4.0,71,0.00,,,0.04,,2013-09-07 19:11:00,
2013-09-07 14:22:00,79.0,70.0,29.84,SW,229,0.0,2.0,75,0.00,,,0.04,,2013-09-07 19:22:00,
2013-09-07 14:52:00,78.0,71.0,29.85,SSW,198,0.0,4.0,78,0.00,,,0.04,,2013-09-07 19:52:00,
2013-09-07 15:02:00,78.0,71.0,29.85,SSW,198,0.0,4.0,78,0.00,,,0.04,,2013-09-07 20:02:00,
2013-09-07 15:11:00,78.0,71.0,29.85,SSW,198,0.0,4.0,78,0.00,,,0.04,,2013-09-07 20:11:00,
2013-09-07 15:22:00,79.0,69.0,29.85,West,266,0.0,7.0,71,0.00,,,0.04,,2013-09-07 20:22:00,
2013-09-07 15:53:00,78.0,69.0,29.87,SSE,158,0.0,5.0,73,0.00,,,0.01,,2013-09-07 20:53:00,
2013-09-07 16:12:00,77.0,68.0,29.88,East,84,0.0,5.0,74,0.00,,,0.01,,2013-09-07 21:12:00,
2013-09-07 16:22:00,74.0,66.0,29.89,SE,129,0.0,9.0,76,0.00,,,0.01,,2013-09-07 21:22:00,
2013-09-07 16:44:00,73.0,65.0,29.90,SSE,161,0.0,6.0,76,0.00,,,0.00,,2013-09-07 21:44:00,
2013-09-07 16:54:00,72.0,65.0,29.91,WNW,284,0.0,3.0,79,0.00,,,0.00,,2013-09-07 21:54:00,
2013-09-07 17:13:00,70.0,64.0,29.91,SE,135,0.0,2.0,81,0.00,,,0.00,,2013-09-07 22:13:00,
2013-09-07 17:24:00,69.0,63.0,29.93,SSE,160,0.0,5.0,82,0.00,,,0.00,,2013-09-07 22:24:00,
2013-09-07 17:43:00,68.0,63.0,29.93,SSE,158,0.0,4.0,84,0.00,,,0.00,,2013-09-07 22:43:00,
2013-09-07 17:53:00,67.0,62.0,29.95,SE,132,0.0,7.0,85,0.00,,,0.00,,2013-09-07 22:53:00,
2013-09-07 18:12:00,66.0,62.0,29.95,SE,129,0.0,2.0,86,0.00,,,0.00,,2013-09-07 23:12:00,
2013-09-07 18:23:00,65.0,60.0,29.96,WSW,240,0.0,3.0,85,0.00,,,0.00,,2013-09-07 23:23:00,
2013-09-07 18:42:00,65.0,61.0,29.97,WSW,245,1.0,6.0,87,0.00,,,0.00,,2013-09-07 23:42:00,
2013-09-07 18:52:00,64.0,60.0,29.97,SW,229,0.0,1.0,88,0.00,,,0.00,,2013-09-07 23:52:00,
2013-09-07 19:11:00,64.0,60.0,29.97,South,174,0.0,2.0,88,0.00,,,0.00,,2013-09-08 00:11:00,
2013-09-07 19:22:00,63.0,60.0,29.98,ENE,60,0.0,2.0,89,0.00,,,0.00,,2013-09-08 00:22:00,
2013-09-07 19:42:00,63.0,60.0,29.99,West,274,0.0,3.0,89,0.00,,,0.00,,2013-09-08 00:42:00,
2013-09-07 19:52:00,62.0,59.0,29.99,SE,145,0.0,4.0,89,0.00,,,0.00,,2013-09-08 00:52:00,
2013-09-07 20:11:00,61.0,58.0,30.00,West,259,0.0,4.0,91,0.00,,,0.00,,2013-09-08 01:11:00,
2013-09-07 20:22:00,61.0,58.0,30.01,SSW,210,0.0,1.0,91,0.00,,,0.00,,2013-09-08 01:22:00,
2013-09-07 20:42:00,61.0,58.0,30.01,NNW,347,0.0,3.0,90,0.00,,,0.00,,2013-09-08 01:42:00,
2013-09-07 20:52:00,60.0,57.0,30.02,SSE,150,0.0,1.0,90,0.00,,,0.00,,2013-09-08 01:52:00,
2013-09-07 21:11:00,58.0,56.0,30.03,SSE,150,0.0,1.0,92,0.00,,,0.00,,2013-09-08 02:11:00,
2013-09-07 21:23:00,57.0,55.0,30.03,SSE,151,0.0,0.0,94,0.00,,,0.00,,2013-09-08 02:23:00,
2013-09-07 21:43:00,56.0,55.0,30.03,WSW,253,0.0,1.0,95,0.00,,,0.00,,2013-09-08 02:43:00,
2013-09-07 21:52:00,55.0,54.0,30.04,WSW,243,0.0,0.0,96,0.00,,,0.00,,2013-09-08 02:52:00,
2013-09-07 22:12:00,54.0,53.0,30.04,SW,221,0.0,0.0,96,0.00,,,0.00,,2013-09-08 03:12:00,
2013-09-07 22:23:00,53.0,52.0,30.04,SW,221,0.0,0.0,97,0.00,,,0.00,,2013-09-08 03:23:00,
2013-09-07 22:44:00,53.0,52.0,30.04,SW,221,0.0,0.0,97,0.00,,,0.00,,2013-09-08 03:44:00,
2013-09-07 22:54:00,52.0,51.0,30.05,SW,221,0.0,0.0,97,0.00,,,0.00,,2013-09-08 03:54:00,
2013-09-07 23:02:00,-999.0,-99.9,30.05,SW,221,0.0,0.0,-999,-99.99,,,-99.99,,2013-09-08 04:02:00,
2013-09-07 23:14:00,51.0,50.0,30.05,SW,221,0.0,0.0,97,0.00,,,0.00,,2013-09-08 04:14:00,
2013-09-07 23:24:00,50.0,49.0,30.05,SW,221,0.0,0.0,97,0.00,,,0.00,,2013-09-08 04:24:00,
2013-09-07 23:43:00,49.0,48.0,30.05,SW,221,0.0,0.0,97,0.00,,,0.00,,2013-09-08 04:43:00,
2013-09-07 23:54:00,49.0,48.0,30.06,SW,221,0.0,0.0,97,0.00,,,0.00,,2013-09-08 04:54:00,